| time (UTC) | temp F | wind direction | speed MPH | gust MPH | rain 1hr in | rain 24hr in | rain mn in | humidity % | barometer mb |
| 20260507060504 | 56 | 141 | 1.0 | 4.0 | 0.00 | 0.08 | 0.01 | 90 | 1013.0 |
| 20260507060005 | 56 | 237 | 0.0 | 2.0 | 0.00 | 0.08 | 0.01 | 89 | 1013.0 |
| 20260507055504 | 56 | 131 | 0.0 | 1.0 | 0.00 | 0.08 | 0.01 | 89 | 1012.9 |
| 20260507055005 | 56 | 135 | 0.0 | 2.0 | 0.00 | 0.08 | 0.01 | 89 | 1013.1 |
| 20260507054504 | 56 | 314 | 1.0 | 5.0 | 0.00 | 0.08 | 0.01 | 89 | 1013.0 |
| 20260507054006 | 55 | 313 | 1.0 | 5.0 | 0.00 | 0.08 | 0.01 | 89 | 1012.9 |
| 20260507053504 | 55 | 311 | 1.0 | 5.0 | 0.00 | 0.08 | 0.01 | 91 | 1012.7 |
| 20260507053005 | 55 | 340 | 0.0 | 2.0 | 0.00 | 0.08 | 0.01 | 90 | 1012.8 |
| 20260507052505 | 55 | 314 | 1.0 | 3.0 | 0.00 | 0.08 | 0.01 | 90 | 1012.7 |
| 20260507052004 | 55 | 310 | 1.0 | 4.0 | 0.00 | 0.08 | 0.01 | 90 | 1012.7 |
| 20260507051506 | 54 | 309 | 1.0 | 4.0 | 0.00 | 0.08 | 0.01 | 91 | 1012.7 |
| 20260507051004 | 54 | 0 | 0.0 | 0.0 | 0.00 | 0.08 | 0.01 | 91 | 1012.7 |
| 20260507050504 | 54 | 0 | 0.0 | 0.0 | 0.00 | 0.08 | 0.01 | 91 | 1012.6 |
| 20260507050008 | 54 | 302 | 1.0 | 4.0 | 0.00 | 0.08 | 0.01 | 91 | 1012.5 |
| 20260507045504 | 54 | 315 | 1.0 | 5.0 | 0.00 | 0.08 | 0.01 | 91 | 1012.5 |
| 20260507045004 | 53 | 326 | 1.0 | 5.0 | 0.00 | 0.08 | 0.01 | 92 | 1012.4 |
| 20260507044504 | 53 | 0 | 0.0 | 0.0 | 0.00 | 0.08 | 0.01 | 92 | 1012.4 |
| 20260507044004 | 53 | 343 | 0.0 | 1.0 | 0.00 | 0.08 | 0.01 | 92 | 1012.4 |
| 20260507043504 | 53 | 352 | 0.0 | 1.0 | 0.00 | 0.08 | 0.01 | 92 | 1012.2 |
| 20260507043006 | 53 | 81 | 0.0 | 2.0 | 0.00 | 0.08 | 0.01 | 91 | 1012.3 |
| 20260507042504 | 53 | 84 | 0.0 | 2.0 | 0.00 | 0.08 | 0.01 | 92 | 1012.1 |
| 20260507042004 | 53 | 89 | 0.0 | 1.0 | 0.00 | 0.08 | 0.01 | 91 | 1012.1 |
| 20260507041504 | 54 | 325 | 1.0 | 3.0 | 0.00 | 0.08 | 0.01 | 91 | 1012.1 |
| 20260507041004 | 54 | 325 | 1.0 | 3.0 | 0.00 | 0.08 | 0.01 | 91 | 1012.0 |
| 20260507040504 | 54 | 324 | 0.0 | 3.0 | 0.00 | 0.08 | 0.01 | 91 | 1012.0 |
| 20260507040216 | 54 | 318 | 0.0 | 2.0 | 0.00 | 0.08 | 0.01 | 91 | 1012.1 |
| 20260507035504 | 54 | 322 | 1.0 | 4.0 | 0.00 | 0.08 | 0.01 | 90 | 1012.0 |
| 20260507035004 | 54 | 326 | 2.0 | 4.0 | 0.00 | 0.08 | 0.01 | 90 | 1012.1 |
| 20260507034504 | 54 | 338 | 1.0 | 4.0 | 0.00 | 0.08 | 0.01 | 90 | 1012.0 |
| 20260507034004 | 54 | 90 | 0.0 | 2.0 | 0.00 | 0.08 | 0.01 | 90 | 1012.0 |
| 20260507033504 | 54 | 16 | 1.0 | 2.0 | 0.00 | 0.08 | 0.01 | 90 | 1012.1 |
| 20260507033005 | 54 | 13 | 1.0 | 2.0 | 0.00 | 0.08 | 0.01 | 90 | 1012.1 |
| 20260507032717 | 54 | 25 | 1.0 | 2.0 | 0.00 | 0.08 | 0.01 | 90 | 1012.0 |
| 20260507032005 | 54 | 347 | 2.0 | 4.0 | 0.00 | 0.08 | 0.01 | 90 | 1011.9 |
| 20260507031504 | 54 | 351 | 2.0 | 4.0 | 0.00 | 0.08 | 0.01 | 90 | 1012.0 |
| 20260507031006 | 55 | 3 | 1.0 | 2.0 | 0.00 | 0.08 | 0.01 | 89 | 1011.9 |
| 20260507030504 | 55 | 38 | 1.0 | 3.0 | 0.00 | 0.08 | 0.01 | 89 | 1011.8 |
| 20260507030004 | 55 | 159 | 2.0 | 6.0 | 0.00 | 0.08 | 0.01 | 89 | 1011.8 |
| 20260507025506 | 55 | 152 | 2.0 | 6.0 | 0.00 | 0.08 | 0.01 | 89 | 1011.9 |
| 20260507025004 | 54 | 344 | 1.0 | 5.0 | 0.00 | 0.08 | 0.01 | 90 | 1011.8 |
| 20260507024505 | 54 | 318 | 2.0 | 5.0 | 0.00 | 0.08 | 0.01 | 89 | 1011.8 |
| 20260507024004 | 54 | 305 | 1.0 | 5.0 | 0.00 | 0.08 | 0.01 | 90 | 1011.8 |
| 20260507023504 | 54 | 146 | 1.0 | 5.0 | 0.00 | 0.08 | 0.01 | 90 | 1012.0 |
| 20260507023215 | 54 | 112 | 1.0 | 5.0 | 0.00 | 0.08 | 0.01 | 90 | 1011.9 |
| 20260507022504 | 54 | 11 | 1.0 | 2.0 | 0.00 | 0.08 | 0.01 | 90 | 1011.9 |
| 20260507022005 | 54 | 330 | 1.0 | 3.0 | 0.00 | 0.08 | 0.01 | 90 | 1011.9 |
| 20260507021504 | 54 | 2 | 1.0 | 3.0 | 0.00 | 0.08 | 0.01 | 90 | 1011.9 |
| 20260507021004 | 54 | 39 | 0.0 | 1.0 | 0.00 | 0.08 | 0.01 | 89 | 1011.9 |
| 20260507020504 | 54 | 287 | 0.0 | 1.0 | 0.00 | 0.08 | 0.01 | 90 | 1011.9 |
| 20260507020006 | 54 | 117 | 0.0 | 2.0 | 0.00 | 0.08 | 0.01 | 89 | 1011.9 |
| 20260507015504 | 54 | 23 | 0.0 | 2.0 | 0.00 | 0.08 | 0.01 | 89 | 1012.0 |
| 20260507015004 | 55 | 337 | 0.0 | 1.0 | 0.00 | 0.08 | 0.01 | 88 | 1012.1 |
| 20260507014504 | 55 | 23 | 0.0 | 3.0 | 0.00 | 0.08 | 0.01 | 87 | 1012.0 |
| 20260507014006 | 55 | 311 | 1.0 | 3.0 | 0.00 | 0.08 | 0.01 | 86 | 1011.9 |
| 20260507013504 | 56 | 303 | 1.0 | 7.0 | 0.00 | 0.08 | 0.01 | 86 | 1011.8 |
| 20260507013004 | 56 | 299 | 2.0 | 7.0 | 0.00 | 0.08 | 0.01 | 86 | 1011.9 |
| 20260507012504 | 56 | 228 | 3.0 | 13.0 | 0.00 | 0.08 | 0.01 | 86 | 1011.9 |
| 20260507012006 | 56 | 188 | 3.0 | 13.0 | 0.00 | 0.08 | 0.01 | 86 | 1011.8 |
| 20260507011504 | 56 | 182 | 3.0 | 9.0 | 0.00 | 0.08 | 0.01 | 86 | 1011.8 |
| 20260507011004 | 55 | 118 | 2.0 | 9.0 | 0.00 | 0.08 | 0.01 | 86 | 1011.8 |
| 20260507010504 | 55 | 118 | 1.0 | 4.0 | 0.00 | 0.08 | 0.01 | 86 | 1011.7 |
| 20260507010005 | 56 | 120 | 1.0 | 4.0 | 0.00 | 0.08 | 0.01 | 85 | 1011.7 |
| 20260507005504 | 55 | 100 | 1.0 | 3.0 | 0.00 | 0.08 | 0.01 | 87 | 1011.7 |
| 20260507005006 | 55 | 335 | 1.0 | 4.0 | 0.00 | 0.08 | 0.01 | 88 | 1011.9 |
| 20260507004504 | 56 | 349 | 1.0 | 4.0 | 0.00 | 0.08 | 0.01 | 87 | 1011.9 |
| 20260507004006 | 56 | 145 | 1.0 | 3.0 | 0.00 | 0.08 | 0.01 | 86 | 1012.0 |
| 20260507003504 | 56 | 124 | 1.0 | 3.0 | 0.00 | 0.08 | 0.01 | 85 | 1012.1 |
| 20260507003004 | 56 | 342 | 1.0 | 3.0 | 0.00 | 0.08 | 0.01 | 85 | 1012.1 |
| 20260507002504 | 56 | 287 | 2.0 | 9.0 | 0.01 | 0.08 | 0.01 | 85 | 1012.1 |
| 20260507002004 | 56 | 287 | 2.0 | 9.0 | 0.01 | 0.08 | 0.01 | 85 | 1012.2 |
| 20260507001715 | 56 | 288 | 1.0 | 9.0 | 0.01 | 0.08 | 0.01 | 86 | 1012.3 |
| 20260507001006 | 56 | 330 | 1.0 | 3.0 | 0.01 | 0.08 | 0.01 | 88 | 1012.3 |
| 20260507000504 | 56 | 315 | 1.0 | 4.0 | 0.01 | 0.08 | 0.01 | 87 | 1012.2 |
| 20260507000005 | 56 | 304 | 1.0 | 4.0 | 0.01 | 0.08 | 0.01 | 87 | 1012.2 |
| 20260506235504 | 56 | 329 | 2.0 | 6.0 | 0.01 | 0.08 | 0.01 | 88 | 1012.1 |
| 20260506235215 | 56 | 324 | 2.0 | 6.0 | 0.01 | 0.08 | 0.01 | 88 | 1012.2 |
| 20260506234506 | 56 | 276 | 1.0 | 5.0 | 0.01 | 0.08 | 0.01 | 88 | 1012.1 |
| 20260506234004 | 56 | 316 | 1.0 | 5.0 | 0.01 | 0.08 | 0.01 | 86 | 1011.9 |
| 20260506233504 | 56 | 312 | 2.0 | 8.0 | 0.01 | 0.08 | 0.01 | 86 | 1011.9 |
| 20260506233004 | 57 | 289 | 2.0 | 8.0 | 0.01 | 0.08 | 0.01 | 85 | 1012.2 |
| 20260506232504 | 57 | 274 | 2.0 | 6.0 | 0.00 | 0.07 | 0.00 | 85 | 1012.3 |
| 20260506232004 | 57 | 278 | 3.0 | 8.0 | 0.00 | 0.07 | 0.00 | 85 | 1012.2 |
| 20260506231504 | 57 | 274 | 3.0 | 10.0 | 0.00 | 0.07 | 0.00 | 84 | 1012.2 |
| 20260506231005 | 57 | 299 | 3.0 | 12.0 | 0.00 | 0.07 | 0.00 | 85 | 1012.4 |
| 20260506230506 | 57 | 309 | 3.0 | 12.0 | 0.00 | 0.07 | 0.00 | 85 | 1012.5 |
| 20260506230004 | 57 | 321 | 3.0 | 10.0 | 0.00 | 0.07 | 0.00 | 85 | 1012.3 |
| 20260506225504 | 57 | 40 | 2.0 | 10.0 | 0.00 | 0.07 | 0.00 | 86 | 1012.2 |
| 20260506225007 | 57 | 139 | 1.0 | 3.0 | 0.00 | 0.07 | 0.00 | 87 | 1012.1 |
| 20260506224505 | 56 | 162 | 1.0 | 3.0 | 0.00 | 0.07 | 0.00 | 89 | 1012.1 |
| 20260506224004 | 57 | 81 | 1.0 | 5.0 | 0.00 | 0.07 | 0.00 | 88 | 1012.0 |
| 20260506223504 | 57 | 27 | 1.0 | 5.0 | 0.00 | 0.07 | 0.00 | 88 | 1012.0 |
| 20260506223004 | 57 | 320 | 2.0 | 9.0 | 0.00 | 0.07 | 0.00 | 88 | 1011.9 |
| 20260506222504 | 57 | 321 | 1.0 | 9.0 | 0.00 | 0.07 | 0.00 | 88 | 1011.9 |
| 20260506222004 | 57 | 7 | 0.0 | 5.0 | 0.00 | 0.07 | 0.00 | 89 | 1011.8 |
| 20260506221504 | 57 | 353 | 1.0 | 5.0 | 0.00 | 0.07 | 0.00 | 88 | 1011.7 |
| 20260506221004 | 57 | 335 | 1.0 | 3.0 | 0.00 | 0.07 | 0.00 | 88 | 1011.7 |
| 20260506220808 | 57 | 333 | 1.0 | 3.0 | 0.00 | 0.07 | 0.00 | 88 | 1011.7 |
| 20260506220504 | 57 | 308 | 1.0 | 4.0 | 0.00 | 0.07 | 0.00 | 88 | 1011.6 |
| 20260506215504 | 57 | 358 | 1.0 | 5.0 | 0.00 | 0.07 | 0.07 | 87 | 1011.6 |
| 20260506215004 | 57 | 8 | 1.0 | 3.0 | 0.01 | 0.07 | 0.07 | 87 | 1011.7 |
| 20260506214504 | 57 | 355 | 1.0 | 2.0 | 0.01 | 0.07 | 0.07 | 88 | 1011.7 |
| 20260506214004 | 57 | 256 | 1.0 | 6.0 | 0.01 | 0.07 | 0.07 | 87 | 1011.7 |
| 20260506213504 | 58 | 309 | 3.0 | 13.0 | 0.01 | 0.07 | 0.07 | 85 | 1011.6 |
| 20260506213218 | 58 | 318 | 4.0 | 13.0 | 0.01 | 0.07 | 0.07 | 85 | 1011.5 |
| 20260506212505 | 58 | 299 | 4.0 | 10.0 | 0.01 | 0.07 | 0.07 | 85 | 1011.4 |
| 20260506212004 | 58 | 282 | 4.0 | 9.0 | 0.01 | 0.07 | 0.07 | 85 | 1011.5 |
| 20260506211504 | 58 | 276 | 2.0 | 8.0 | 0.01 | 0.07 | 0.07 | 87 | 1011.6 |
| 20260506211006 | 58 | 246 | 2.0 | 8.0 | 0.01 | 0.07 | 0.07 | 87 | 1011.5 |
| 20260506210504 | 58 | 267 | 2.0 | 8.0 | 0.01 | 0.07 | 0.07 | 86 | 1011.6 |
| 20260506210006 | 58 | 292 | 2.0 | 6.0 | 0.01 | 0.07 | 0.07 | 87 | 1011.4 |
| 20260506205504 | 59 | 263 | 2.0 | 7.0 | 0.01 | 0.07 | 0.07 | 86 | 1011.6 |
| 20260506205004 | 59 | 295 | 3.0 | 12.0 | 0.00 | 0.06 | 0.06 | 86 | 1011.5 |
| 20260506204504 | 59 | 304 | 4.0 | 14.0 | 0.00 | 0.06 | 0.06 | 85 | 1011.5 |
| 20260506204006 | 59 | 302 | 4.0 | 14.0 | 0.00 | 0.06 | 0.06 | 85 | 1011.2 |
| 20260506203506 | 58 | 304 | 3.0 | 11.0 | 0.00 | 0.06 | 0.06 | 86 | 1011.2 |
| 20260506203004 | 58 | 302 | 2.0 | 10.0 | 0.01 | 0.06 | 0.06 | 88 | 1011.1 |
| 20260506202505 | 58 | 310 | 2.0 | 9.0 | 0.01 | 0.06 | 0.06 | 88 | 1011.0 |
| 20260506202004 | 58 | 311 | 2.0 | 9.0 | 0.02 | 0.06 | 0.06 | 89 | 1010.9 |
| 20260506201504 | 58 | 288 | 1.0 | 7.0 | 0.02 | 0.06 | 0.06 | 89 | 1011.0 |
| 20260506201004 | 58 | 112 | 1.0 | 7.0 | 0.02 | 0.06 | 0.06 | 89 | 1011.0 |
| 20260506200505 | 58 | 339 | 3.0 | 8.0 | 0.02 | 0.06 | 0.06 | 87 | 1010.9 |
| 20260506200005 | 58 | 307 | 3.0 | 8.0 | 0.02 | 0.06 | 0.06 | 87 | 1010.9 |
| 20260506195506 | 58 | 310 | 2.0 | 8.0 | 0.02 | 0.06 | 0.06 | 87 | 1010.9 |
| 20260506195005 | 58 | 323 | 3.0 | 7.0 | 0.02 | 0.06 | 0.06 | 87 | 1010.8 |
| 20260506194504 | 59 | 319 | 5.0 | 11.0 | 0.02 | 0.06 | 0.06 | 87 | 1010.8 |
| 20260506194004 | 59 | 311 | 5.0 | 11.0 | 0.02 | 0.06 | 0.06 | 86 | 1010.9 |
| 20260506193716 | 59 | 293 | 5.0 | 11.0 | 0.02 | 0.06 | 0.06 | 85 | 1010.9 |
| 20260506193004 | 59 | 289 | 5.0 | 13.0 | 0.01 | 0.06 | 0.06 | 85 | 1010.9 |
| 20260506192504 | 60 | 306 | 4.0 | 13.0 | 0.01 | 0.06 | 0.06 | 84 | 1010.8 |
| 20260506192005 | 60 | 315 | 3.0 | 8.0 | 0.00 | 0.05 | 0.05 | 84 | 1010.8 |
| 20260506191503 | 60 | 317 | 3.0 | 7.0 | 0.00 | 0.05 | 0.05 | 84 | 1010.5 |
| 20260506191004 | 59 | 312 | 3.0 | 6.0 | 0.00 | 0.05 | 0.05 | 85 | 1010.3 |
| 20260506190504 | 59 | 329 | 2.0 | 6.0 | 0.00 | 0.05 | 0.05 | 86 | 1010.4 |
| 20260506190006 | 58 | 37 | 1.0 | 4.0 | 0.00 | 0.05 | 0.05 | 87 | 1010.3 |
| 20260506185504 | 58 | 131 | 1.0 | 2.0 | 0.00 | 0.05 | 0.05 | 88 | 1010.2 |
| 20260506185005 | 58 | 125 | 1.0 | 2.0 | 0.00 | 0.06 | 0.05 | 88 | 1010.3 |
| 20260506184504 | 58 | 64 | 1.0 | 4.0 | 0.00 | 0.06 | 0.05 | 87 | 1010.2 |
| 20260506184004 | 58 | 59 | 2.0 | 5.0 | 0.00 | 0.06 | 0.05 | 87 | 1010.2 |
| 20260506183504 | 58 | 81 | 2.0 | 5.0 | 0.00 | 0.06 | 0.05 | 88 | 1010.1 |
| 20260506183005 | 58 | 118 | 2.0 | 4.0 | 0.00 | 0.06 | 0.05 | 89 | 1010.1 |
| 20260506182504 | 58 | 111 | 2.0 | 4.0 | 0.00 | 0.06 | 0.05 | 88 | 1010.0 |
| 20260506182005 | 58 | 101 | 1.0 | 4.0 | 0.00 | 0.06 | 0.05 | 87 | 1010.0 |
| 20260506181714 | 59 | 88 | 1.0 | 4.0 | 0.00 | 0.07 | 0.05 | 86 | 1010.1 |
| 20260506181217 | 59 | 131 | 1.0 | 5.0 | 0.00 | 0.09 | 0.05 | 86 | 1010.1 |
| 20260506180504 | 59 | 103 | 1.0 | 4.0 | 0.00 | 0.09 | 0.05 | 85 | 1010.0 |
| 20260506180006 | 60 | 87 | 1.0 | 7.0 | 0.00 | 0.09 | 0.05 | 84 | 1010.1 |
| 20260506175504 | 60 | 4 | 2.0 | 7.0 | 0.00 | 0.09 | 0.05 | 84 | 1010.1 |
| 20260506175006 | 60 | 325 | 2.0 | 9.0 | 0.00 | 0.09 | 0.05 | 83 | 1009.9 |
| 20260506174504 | 60 | 341 | 4.0 | 13.0 | 0.00 | 0.09 | 0.05 | 83 | 1009.8 |
| 20260506174004 | 60 | 334 | 6.0 | 13.0 | 0.00 | 0.09 | 0.05 | 83 | 1009.8 |
| 20260506173504 | 60 | 322 | 6.0 | 12.0 | 0.00 | 0.10 | 0.05 | 83 | 1009.8 |
| 20260506173006 | 60 | 313 | 5.0 | 12.0 | 0.00 | 0.10 | 0.05 | 83 | 1009.9 |
| 20260506172504 | 60 | 310 | 6.0 | 14.0 | 0.00 | 0.10 | 0.05 | 83 | 1010.1 |
| 20260506172006 | 60 | 316 | 6.0 | 14.0 | 0.00 | 0.10 | 0.05 | 83 | 1009.8 |
| 20260506171504 | 60 | 316 | 4.0 | 14.0 | 0.00 | 0.10 | 0.05 | 84 | 1009.9 |
| 20260506171217 | 60 | 314 | 3.0 | 12.0 | 0.00 | 0.10 | 0.05 | 83 | 1009.9 |
| 20260506170504 | 60 | 303 | 4.0 | 8.0 | 0.00 | 0.10 | 0.05 | 84 | 1010.0 |
| 20260506170005 | 60 | 310 | 3.0 | 6.0 | 0.00 | 0.10 | 0.05 | 84 | 1009.9 |
| 20260506165504 | 60 | 315 | 2.0 | 7.0 | 0.00 | 0.10 | 0.05 | 84 | 1009.9 |
| 20260506165005 | 60 | 303 | 3.0 | 9.0 | 0.00 | 0.10 | 0.05 | 85 | 1009.9 |
| 20260506164505 | 60 | 300 | 3.0 | 9.0 | 0.00 | 0.10 | 0.05 | 85 | 1010.0 |
| 20260506164004 | 60 | 307 | 3.0 | 8.0 | 0.00 | 0.10 | 0.05 | 85 | 1010.0 |
| 20260506163718 | 60 | 311 | 3.0 | 9.0 | 0.00 | 0.10 | 0.05 | 85 | 1010.1 |
| 20260506163005 | 60 | 327 | 3.0 | 9.0 | 0.00 | 0.10 | 0.05 | 85 | 1010.2 |
| 20260506162714 | 60 | 321 | 2.0 | 6.0 | 0.00 | 0.10 | 0.05 | 85 | 1010.2 |
| 20260506162006 | 60 | 313 | 2.0 | 6.0 | 0.00 | 0.10 | 0.05 | 85 | 1010.3 |
| 20260506161506 | 60 | 318 | 3.0 | 7.0 | 0.00 | 0.10 | 0.05 | 85 | 1010.2 |
| 20260506161004 | 60 | 322 | 2.0 | 7.0 | 0.00 | 0.10 | 0.05 | 85 | 1010.3 |
| 20260506160504 | 60 | 315 | 2.0 | 6.0 | 0.00 | 0.10 | 0.05 | 86 | 1010.3 |
| 20260506160007 | 60 | 324 | 3.0 | 11.0 | 0.00 | 0.10 | 0.05 | 86 | 1010.3 |
| 20260506155717 | 60 | 333 | 4.0 | 11.0 | 0.00 | 0.10 | 0.05 | 86 | 1010.4 |
| 20260506155005 | 60 | 325 | 2.0 | 10.0 | 0.00 | 0.10 | 0.05 | 86 | 1010.4 |
| 20260506154504 | 60 | 310 | 2.0 | 9.0 | 0.00 | 0.10 | 0.05 | 85 | 1010.4 |
| 20260506154006 | 60 | 322 | 3.0 | 9.0 | 0.00 | 0.10 | 0.05 | 85 | 1010.4 |
| 20260506153714 | 60 | 327 | 4.0 | 9.0 | 0.00 | 0.10 | 0.05 | 85 | 1010.4 |
| 20260506153217 | 60 | 335 | 4.0 | 9.0 | 0.00 | 0.10 | 0.05 | 85 | 1010.5 |
| 20260506152504 | 60 | 316 | 3.0 | 7.0 | 0.00 | 0.10 | 0.05 | 86 | 1010.5 |
| 20260506152006 | 59 | 309 | 4.0 | 12.0 | 0.00 | 0.10 | 0.05 | 86 | 1010.6 |
| 20260506151504 | 59 | 314 | 5.0 | 12.0 | 0.00 | 0.10 | 0.05 | 86 | 1010.5 |
| 20260506151004 | 59 | 318 | 3.0 | 7.0 | 0.00 | 0.10 | 0.05 | 86 | 1010.5 |
| 20260506150504 | 59 | 314 | 3.0 | 7.0 | 0.00 | 0.10 | 0.05 | 86 | 1010.5 |
| 20260506150005 | 59 | 318 | 4.0 | 8.0 | 0.00 | 0.10 | 0.05 | 86 | 1010.4 |
| 20260506145504 | 59 | 312 | 3.0 | 8.0 | 0.00 | 0.10 | 0.05 | 87 | 1010.4 |
| 20260506145004 | 59 | 302 | 2.0 | 7.0 | 0.00 | 0.10 | 0.05 | 87 | 1010.4 |
| 20260506144504 | 59 | 306 | 3.0 | 10.0 | 0.00 | 0.10 | 0.05 | 87 | 1010.5 |
| 20260506144216 | 59 | 316 | 3.0 | 10.0 | 0.00 | 0.10 | 0.05 | 87 | 1010.5 |
| 20260506143504 | 59 | 306 | 3.0 | 9.0 | 0.00 | 0.10 | 0.05 | 87 | 1010.5 |
| 20260506143004 | 59 | 304 | 2.0 | 9.0 | 0.00 | 0.10 | 0.05 | 87 | 1010.5 |
| 20260506142504 | 59 | 311 | 2.0 | 8.0 | 0.00 | 0.10 | 0.05 | 87 | 1010.5 |
| 20260506142004 | 59 | 305 | 3.0 | 10.0 | 0.00 | 0.10 | 0.05 | 86 | 1010.6 |
| 20260506141506 | 59 | 297 | 4.0 | 12.0 | 0.00 | 0.10 | 0.05 | 86 | 1010.7 |
| 20260506141004 | 59 | 312 | 5.0 | 12.0 | 0.00 | 0.10 | 0.05 | 86 | 1010.6 |
| 20260506140504 | 59 | 317 | 4.0 | 9.0 | 0.00 | 0.10 | 0.05 | 86 | 1010.7 |
| 20260506140005 | 60 | 304 | 5.0 | 12.0 | 0.00 | 0.10 | 0.05 | 85 | 1010.8 |
| 20260506135718 | 60 | 304 | 5.0 | 12.0 | 0.00 | 0.10 | 0.05 | 85 | 1010.8 |
| 20260506135004 | 59 | 321 | 4.0 | 9.0 | 0.00 | 0.10 | 0.05 | 85 | 1010.8 |
| 20260506134504 | 59 | 326 | 3.0 | 9.0 | 0.00 | 0.10 | 0.05 | 85 | 1010.8 |
| 20260506134006 | 59 | 321 | 3.0 | 11.0 | 0.00 | 0.10 | 0.05 | 86 | 1010.9 |
| 20260506133505 | 60 | 335 | 5.0 | 14.0 | 0.00 | 0.10 | 0.05 | 85 | 1011.0 |
| 20260506133004 | 60 | 343 | 6.0 | 14.0 | 0.00 | 0.10 | 0.05 | 84 | 1010.9 |
| 20260506132504 | 60 | 337 | 5.0 | 10.0 | 0.00 | 0.10 | 0.05 | 85 | 1010.9 |
| 20260506132005 | 60 | 347 | 3.0 | 6.0 | 0.00 | 0.10 | 0.05 | 84 | 1011.0 |
| 20260506131505 | 60 | 357 | 1.0 | 4.0 | 0.00 | 0.10 | 0.05 | 85 | 1011.0 |
| 20260506131004 | 60 | 323 | 1.0 | 6.0 | 0.00 | 0.10 | 0.05 | 85 | 1011.0 |
| 20260506130504 | 60 | 336 | 3.0 | 7.0 | 0.00 | 0.10 | 0.05 | 84 | 1010.9 |
| 20260506130216 | 60 | 341 | 3.0 | 7.0 | 0.00 | 0.10 | 0.05 | 84 | 1010.9 |
| 20260506125504 | 60 | 339 | 3.0 | 5.0 | 0.00 | 0.10 | 0.05 | 85 | 1011.1 |
| 20260506125005 | 60 | 332 | 3.0 | 6.0 | 0.00 | 0.10 | 0.05 | 85 | 1011.1 |
| 20260506124715 | 60 | 337 | 4.0 | 13.0 | 0.00 | 0.10 | 0.05 | 85 | 1011.2 |
| 20260506124006 | 59 | 326 | 5.0 | 13.0 | 0.00 | 0.10 | 0.05 | 84 | 1011.0 |
| 20260506123504 | 59 | 319 | 4.0 | 10.0 | 0.01 | 0.10 | 0.05 | 85 | 1011.2 |
| 20260506123004 | 59 | 313 | 4.0 | 10.0 | 0.01 | 0.10 | 0.05 | 85 | 1011.2 |
| 20260506122504 | 59 | 313 | 5.0 | 10.0 | 0.01 | 0.10 | 0.05 | 86 | 1011.2 |
| 20260506122004 | 59 | 327 | 4.0 | 9.0 | 0.01 | 0.10 | 0.05 | 87 | 1011.4 |
| 20260506121504 | 59 | 332 | 5.0 | 8.0 | 0.01 | 0.10 | 0.05 | 87 | 1011.4 |
| 20260506121004 | 59 | 324 | 4.0 | 8.0 | 0.01 | 0.10 | 0.05 | 87 | 1011.4 |
| 20260506120505 | 59 | 333 | 2.0 | 5.0 | 0.01 | 0.10 | 0.05 | 89 | 1011.4 |
| 20260506120007 | 59 | 326 | 1.0 | 5.0 | 0.01 | 0.10 | 0.05 | 88 | 1011.4 |
| 20260506115504 | 59 | 314 | 1.0 | 4.0 | 0.01 | 0.10 | 0.05 | 87 | 1011.4 |
| 20260506115005 | 59 | 315 | 2.0 | 5.0 | 0.01 | 0.10 | 0.05 | 87 | 1011.4 |
| 20260506114504 | 59 | 318 | 2.0 | 6.0 | 0.01 | 0.10 | 0.05 | 87 | 1011.5 |
| 20260506114005 | 59 | 336 | 3.0 | 6.0 | 0.01 | 0.10 | 0.05 | 87 | 1011.5 |
| 20260506113716 | 59 | 337 | 2.0 | 5.0 | 0.00 | 0.09 | 0.04 | 86 | 1011.6 |
| 20260506113006 | 59 | 316 | 2.0 | 7.0 | 0.00 | 0.09 | 0.04 | 85 | 1011.6 |
| 20260506112717 | 59 | 314 | 3.0 | 10.0 | 0.00 | 0.09 | 0.04 | 85 | 1011.6 |
| 20260506112004 | 60 | 313 | 3.0 | 10.0 | 0.00 | 0.09 | 0.04 | 85 | 1011.7 |
| 20260506111504 | 60 | 322 | 4.0 | 10.0 | 0.00 | 0.09 | 0.04 | 84 | 1011.8 |
| 20260506111216 | 60 | 325 | 3.0 | 10.0 | 0.00 | 0.09 | 0.04 | 85 | 1011.8 |
| 20260506110509 | 60 | 310 | 3.0 | 9.0 | 0.00 | 0.09 | 0.04 | 84 | 1011.8 |
| 20260506110217 | 60 | 310 | 3.0 | 9.0 | 0.00 | 0.09 | 0.04 | 84 | 1011.8 |
| 20260506105504 | 60 | 311 | 3.0 | 7.0 | 0.00 | 0.09 | 0.04 | 84 | 1012.0 |
| 20260506105005 | 60 | 305 | 3.0 | 8.0 | 0.01 | 0.09 | 0.04 | 85 | 1012.3 |
| 20260506104504 | 60 | 314 | 3.0 | 9.0 | 0.01 | 0.09 | 0.04 | 84 | 1012.1 |
| 20260506104004 | 60 | 2 | 4.0 | 13.0 | 0.01 | 0.09 | 0.04 | 83 | 1012.1 |
| 20260506103504 | 60 | 359 | 5.0 | 13.0 | 0.01 | 0.09 | 0.04 | 84 | 1012.1 |
| 20260506103006 | 60 | 331 | 4.0 | 9.0 | 0.01 | 0.09 | 0.04 | 85 | 1012.2 |
| 20260506102504 | 59 | 324 | 3.0 | 9.0 | 0.01 | 0.09 | 0.04 | 86 | 1012.3 |
| 20260506102004 | 60 | 327 | 3.0 | 9.0 | 0.01 | 0.09 | 0.04 | 86 | 1012.2 |
| 20260506101504 | 60 | 342 | 2.0 | 7.0 | 0.01 | 0.09 | 0.04 | 86 | 1012.2 |
| 20260506101004 | 60 | 13 | 2.0 | 7.0 | 0.01 | 0.09 | 0.04 | 86 | 1012.3 |
| 20260506100504 | 60 | 342 | 2.0 | 5.0 | 0.01 | 0.09 | 0.04 | 86 | 1012.4 |
| 20260506100007 | 60 | 305 | 2.0 | 5.0 | 0.01 | 0.09 | 0.04 | 86 | 1012.4 |
| 20260506095504 | 60 | 313 | 2.0 | 5.0 | 0.01 | 0.09 | 0.04 | 87 | 1012.4 |
| 20260506095006 | 60 | 139 | 3.0 | 10.0 | 0.00 | 0.09 | 0.03 | 86 | 1012.4 |
| 20260506094504 | 60 | 133 | 4.0 | 11.0 | 0.00 | 0.09 | 0.03 | 85 | 1012.4 |
| 20260506094004 | 60 | 138 | 3.0 | 11.0 | 0.00 | 0.09 | 0.03 | 86 | 1012.4 |
| 20260506093717 | 60 | 128 | 3.0 | 10.0 | 0.00 | 0.09 | 0.03 | 85 | 1012.3 |
| 20260506093004 | 60 | 99 | 2.0 | 5.0 | 0.00 | 0.09 | 0.03 | 85 | 1012.3 |
| 20260506092506 | 60 | 34 | 1.0 | 4.0 | 0.00 | 0.09 | 0.03 | 86 | 1012.3 |
| 20260506092004 | 61 | 353 | 1.0 | 4.0 | 0.00 | 0.09 | 0.03 | 86 | 1012.4 |
| 20260506091504 | 60 | 314 | 2.0 | 8.0 | 0.00 | 0.09 | 0.03 | 86 | 1012.4 |
| 20260506091004 | 60 | 304 | 2.0 | 8.0 | 0.00 | 0.09 | 0.03 | 86 | 1012.4 |
| 20260506090504 | 60 | 288 | 2.0 | 7.0 | 0.00 | 0.09 | 0.03 | 87 | 1012.4 |
| 20260506090218 | 60 | 283 | 2.0 | 7.0 | 0.00 | 0.09 | 0.03 | 86 | 1012.4 |
| 20260506085504 | 60 | 289 | 2.0 | 5.0 | 0.00 | 0.09 | 0.03 | 85 | 1012.3 |
| 20260506085214 | 60 | 299 | 2.0 | 5.0 | 0.00 | 0.09 | 0.03 | 86 | 1012.3 |
| 20260506084717 | 60 | 301 | 1.0 | 4.0 | 0.00 | 0.09 | 0.03 | 87 | 1012.4 |
| 20260506084006 | 59 | 277 | 1.0 | 5.0 | 0.00 | 0.09 | 0.03 | 88 | 1012.1 |
| 20260506083504 | 59 | 260 | 1.0 | 5.0 | 0.00 | 0.09 | 0.03 | 89 | 1012.1 |
| 20260506083004 | 59 | 219 | 0.0 | 2.0 | 0.00 | 0.09 | 0.03 | 90 | 1012.1 |
| 20260506082504 | 58 | 179 | 1.0 | 3.0 | 0.00 | 0.09 | 0.03 | 90 | 1012.1 |
| 20260506082004 | 58 | 135 | 1.0 | 3.0 | 0.00 | 0.09 | 0.03 | 90 | 1012.1 |
| 20260506081504 | 58 | 131 | 2.0 | 4.0 | 0.00 | 0.09 | 0.03 | 90 | 1012.1 |
| 20260506081004 | 58 | 129 | 2.0 | 4.0 | 0.00 | 0.09 | 0.03 | 90 | 1012.1 |
| 20260506080504 | 58 | 109 | 1.0 | 3.0 | 0.01 | 0.09 | 0.03 | 91 | 1012.1 |
| 20260506073506 | 56 | 41 | 1.0 | 2.0 | 0.03 | 0.09 | 0.03 | 92 | 1012.4 |
| 20260506073004 | 56 | 53 | 0.0 | 2.0 | 0.03 | 0.09 | 0.03 | 92 | 1012.4 |
| 20260506072504 | 56 | 344 | 1.0 | 3.0 | 0.03 | 0.09 | 0.03 | 92 | 1012.4 |
| 20260506072004 | 56 | 352 | 1.0 | 3.0 | 0.03 | 0.09 | 0.03 | 91 | 1012.4 |
| 20260506071504 | 56 | 10 | 0.0 | 3.0 | 0.03 | 0.09 | 0.03 | 91 | 1012.4 |
| 20260506071005 | 56 | 349 | 2.0 | 5.0 | 0.03 | 0.09 | 0.03 | 90 | 1012.5 |
| 20260506070504 | 57 | 340 | 2.0 | 5.0 | 0.02 | 0.08 | 0.02 | 89 | 1012.5 |
| 20260506062504 | 60 | 267 | 2.0 | 5.0 | 0.00 | 0.06 | 0.00 | 80 | 1012.3 |
| 20260506062004 | 60 | 251 | 2.0 | 6.0 | 0.00 | 0.06 | 0.00 | 81 | 1012.2 |
| 20260506061504 | 60 | 246 | 2.0 | 7.0 | 0.00 | 0.06 | 0.00 | 81 | 1012.1 |
| 20260506061214 | 60 | 243 | 3.0 | 7.0 | 0.00 | 0.06 | 0.00 | 81 | 1012.1 |